Wind_Speed
45 47 48 50 52 53 55 58 60 60 60 59 58 58 56 53 51 50 50 49 49 48 47 47 47 47 47 46 45 44 43 43 43 45 46 46 47 48 48 49 49 49 49
51 52 53 54 56 58 59 60 62 63 62 60 59 57 54 51 50 50 51 50 49 47 45 44 43 43 43 43 42 42 42 44 46 48 49 50 51 52 53 54 55 56 56
56 57 58 59 60 60 60 61 63 62 61 58 57 56 54 52 52 52 52 51 49 45 43 43 41 41 41 40 40 41 44 46 48 50 52 54 55 56 58 60 62 63 63
60 61 62 63 62 62 62 62 63 62 61 58 55 55 54 53 53 52 50 49 48 46 44 42 41 41 41 40 41 42 44 47 49 51 54 58 61 63 64 64 65 67 68
64 64 64 62 61 61 60 61 62 62 60 58 56 54 51 50 49 47 46 46 46 45 44 42 42 40 39 41 42 44 45 48 51 54 57 59 60 60 60 58 58 61 66
67 66 64 62 60 58 58 59 60 60 60 58 56 52 49 48 46 44 44 45 45 43 42 42 41 40 39 40 41 43 46 50 53 54 52 49 47 45 44 44 47 53 59
66 65 64 61 57 55 55 56 57 57 57 56 55 52 50 49 48 45 46 47 46 43 41 41 41 40 40 40 42 44 48 50 49 46 43 41 42 43 46 48 52 56 60
68 65 61 57 54 53 53 54 54 54 54 54 54 53 53 52 51 49 48 48 45 42 40 40 40 40 40 41 43 45 47 46 45 42 41 42 44 46 49 51 54 57 58
69 64 57 53 52 51 51 52 53 53 52 53 54 56 55 54 53 49 45 41 39 38 38 40 40 41 41 42 43 44 44 44 43 41 42 44 45 47 47 49 52 54 54
66 62 56 51 49 49 50 52 53 53 52 53 54 56 56 54 52 47 42 38 36 36 37 40 41 41 42 42 42 43 43 43 42 42 43 44 44 44 44 46 48 49 49
64 59 54 50 48 48 49 52 54 54 53 54 54 53 53 53 51 46 41 38 37 37 38 40 40 40 40 40 40 41 42 42 42 43 43 42 42 42 42 43 43 44 43
58 53 49 47 45 46 48 50 52 52 52 53 51 49 51 54 52 48 42 39 38 38 39 40 40 39 38 39 39 40 41 41 42 42 42 41 41 40 39 39 38 38 37
54 50 48 47 46 47 47 47 49 48 48 48 47 45 48 49 47 43 40 39 39 39 39 40 40 41 40 39 39 39 40 40 40 41 41 41 40 38 36 35 34 33 32
52 52 51 49 50 51 47 43 42 42 42 42 40 42 44 43 41 38 36 37 38 38 38 39 41 43 43 42 40 40 39 39 41 41 41 41 40 37 34 34 33 31 30
49 49 49 45 42 45 46 43 38 37 37 36 38 40 39 36 35 36 36 36 36 36 37 40 43 44 44 43 41 40 41 41 43 43 42 41 40 36 34 33 32 31 30
47 46 44 38 33 34 37 38 34 33 34 36 36 34 30 29 32 34 36 37 36 36 38 40 42 44 45 44 43 42 42 43 44 45 43 41 40 38 35 33 32 32 32
44 40 35 32 28 26 28 31 32 33 34 34 31 28 28 28 30 32 34 35 36 37 39 41 42 44 45 45 45 44 43 43 45 45 44 42 41 40 38 34 33 33 34
42 37 32 28 24 21 20 22 25 29 32 32 30 27 24 25 27 29 32 34 35 37 38 40 42 44 46 47 47 45 44 44 45 46 45 44 43 43 40 37 35 35 36
43 38 33 30 26 23 20 19 22 27 31 31 29 26 25 27 29 31 34 36 38 39 39 41 43 45 47 49 48 46 43 43 45 46 45 44 45 44 42 40 38 37 38
43 38 34 32 29 26 23 22 25 27 29 29 28 27 27 28 30 34 37 39 41 42 41 42 44 46 48 49 49 46 43 43 44 45 45 45 45 46 45 44 42 41 40
38 34 31 29 28 26 25 24 25 28 30 29 28 27 27 29 32 37 40 41 42 42 43 45 46 47 48 48 48 46 44 43 43 45 46 46 46 47 47 48 47 46 45
32 30 27 25 23 22 23 24 25 27 28 28 28 27 28 30 33 37 39 41 43 45 46 47 48 47 47 46 45 44 44 43 43 44 45 46 47 48 49 51 52 51 51
25 25 23 22 21 21 23 25 26 26 27 27 27 27 30 32 35 37 39 40 41 43 44 46 46 46 45 44 44 44 44 44 44 45 46 47 48 49 51 53 54 55 55
17 19 21 23 25 26 27 28 28 28 28 28 29 30 33 35 37 40 42 43 43 42 42 43 43 44 44 44 44 45 45 45 45 46 47 49 51 52 54 55 57 59 59
13 16 21 25 29 30 30 29 29 30 31 31 32 34 35 38 40 43 44 44 43 41 41 41 42 43 44 45 45 45 46 47 47 48 50 52 54 56 57 59 60 61 62
17 17 19 22 25 26 27 26 27 29 32 34 35 36 38 41 43 44 44 44 42 41 40 40 41 43 44 46 47 48 49 50 51 53 55 56 58 59 61 62 63 65 66
Wind_Direction
293 293 293 292 291 289 289 288 288 289 289 289 288 287 285 284 282 280 280 278 274 270 267 265 263 262 261 261 261 261 261 261 262 262 263 264 265 267 269 269 269 268 265
295 294 294 293 292 290 289 289 288 289 288 288 286 285 282 279 278 277 277 276 270 266 263 261 261 260 259 257 257 259 261 263 264 265 265 265 266 267 268 270 270 270 269
296 295 295 294 292 291 289 290 290 289 288 286 283 281 280 279 277 276 274 271 266 262 259 258 259 259 257 257 258 260 262 264 265 266 267 267 267 266 267 268 268 268 268
297 296 296 295 293 292 291 291 290 288 286 282 279 278 279 279 278 276 272 266 262 260 259 259 259 259 259 261 262 264 266 268 269 270 271 272 271 270 268 267 268 268 267
299 299 299 299 297 295 292 290 288 285 283 280 278 277 278 279 280 278 273 267 262 258 257 257 257 258 261 263 266 268 271 273 275 276 276 277 276 275 274 272 271 270 268
303 303 303 302 300 295 290 287 284 283 281 279 278 278 278 278 281 279 273 272 269 263 257 255 255 257 261 265 268 272 275 278 279 279 279 278 276 275 275 277 278 277 274
304 304 304 302 297 290 285 281 279 278 277 277 277 278 279 279 281 278 274 274 270 262 257 256 256 258 263 267 271 275 278 280 279 278 276 275 275 277 278 281 285 286 282
304 304 302 298 292 286 280 276 274 273 273 275 276 277 278 279 281 280 277 275 267 258 255 257 259 263 267 270 274 278 280 279 276 274 274 276 279 281 282 285 289 293 290
302 301 298 294 288 282 276 272 270 269 270 273 276 277 279 280 282 284 281 271 258 252 254 257 261 265 269 273 277 280 280 278 275 274 275 278 280 283 286 290 296 299 295
300 298 295 290 283 277 273 271 271 271 270 271 273 276 279 281 284 284 278 266 255 253 255 256 261 267 272 276 279 280 278 277 274 273 275 278 280 283 288 295 302 304 297
299 297 292 286 283 281 277 276 276 276 273 272 272 276 279 280 281 281 273 262 255 254 256 257 262 269 274 277 280 280 279 276 273 272 274 277 279 283 290 298 306 308 300
297 295 289 283 279 277 276 277 279 280 277 275 275 279 276 275 277 277 269 259 254 255 256 257 262 268 274 278 280 281 281 277 272 271 273 275 279 284 291 300 308 311 306
294 289 283 275 270 268 270 276 279 279 278 277 278 273 268 269 272 271 264 258 255 255 256 259 263 267 272 278 280 280 280 277 272 271 273 275 279 284 291 298 305 311 311
293 288 283 275 267 264 266 273 279 279 278 275 268 263 265 269 271 267 262 260 258 256 258 261 263 267 270 275 279 279 277 274 271 272 273 274 278 283 288 293 299 307 312
295 291 288 282 271 264 263 268 277 277 273 264 259 262 269 273 271 266 261 259 258 257 259 262 263 266 270 273 277 279 276 273 271 271 272 272 275 281 286 289 294 300 305
299 296 294 289 277 268 265 268 276 272 265 260 261 268 276 277 272 266 261 259 259 260 262 264 264 265 268 273 276 279 277 272 270 269 270 270 272 276 281 286 291 294 296
302 300 299 295 287 275 266 266 271 267 262 262 266 273 277 276 274 270 265 263 264 266 266 266 267 268 269 273 275 278 278 274 270 267 267 267 268 272 277 283 288 290 292
298 295 293 288 280 270 262 264 266 262 259 261 267 271 275 281 282 278 273 270 271 272 272 272 273 273 274 275 276 277 277 275 270 266 265 265 265 269 274 279 282 286 289
290 289 286 283 274 263 256 254 257 258 261 265 267 268 276 284 286 285 280 275 274 275 276 276 276 277 277 277 277 277 276 274 271 266 264 264 264 267 271 275 278 280 284
283 282 280 279 276 269 259 253 253 256 260 263 264 269 276 285 290 290 287 282 278 276 277 279 279 279 278 278 278 277 276 273 271 268 266 264 264 265 268 272 275 278 281
279 279 278 277 277 272 260 256 255 258 260 261 264 270 279 288 294 294 291 285 280 278 278 280 282 282 280 279 277 276 274 273 271 270 268 266 265 266 269 272 275 277 279
274 276 276 277 278 277 268 260 258 259 259 260 265 273 283 290 295 297 297 291 284 280 280 282 284 284 281 278 276 275 274 272 271 270 269 267 267 268 271 273 276 278 279
275 274 275 275 278 284 283 272 263 259 259 263 270 276 282 287 293 297 298 295 290 286 283 284 284 282 279 277 276 275 274 273 272 271 270 268 268 270 272 274 276 278 279
285 279 276 276 279 284 287 280 268 261 261 266 272 276 281 287 293 297 298 296 292 289 286 284 282 280 278 278 277 276 275 275 274 273 272 271 271 272 274 276 277 278 279
315 293 284 282 284 285 285 279 268 262 261 264 270 277 284 288 293 297 299 296 292 289 286 284 282 280 280 280 279 278 277 277 277 276 276 276 276 277 277 278 278 279 279
340 322 308 300 295 292 289 280 268 264 264 267 273 281 286 290 294 296 296 294 291 289 287 285 283 282 281 280 279 279 279 279 279 279 279 279 279 278 278 279 279 280 281
Height
5751 5747 5743 5739 5734 5729 5726 5722 5717 5714 5711 5708 5704 5700 5697 5695 5694 5693 5691 5690 5689 5688 5688 5687 5688 5688 5688 5689 5690 5692 5693 5695 5697 5699 5700 5700 5700 5701 5701 5703 5705 5707 5709
5740 5735 5731 5726 5720 5715 5711 5707 5703 5699 5696 5693 5689 5686 5684 5682 5681 5680 5679 5678 5676 5675 5675 5675 5675 5676 5677 5678 5679 5680 5681 5683 5685 5686 5687 5688 5689 5689 5689 5689 5689 5690 5693
5727 5721 5716 5710 5704 5699 5695 5691 5687 5684 5681 5678 5675 5672 5670 5669 5668 5667 5665 5664 5663 5663 5663 5663 5663 5664 5665 5667 5668 5669 5670 5671 5672 5673 5675 5675 5676 5677 5676 5675 5674 5674 5676
5712 5706 5701 5695 5690 5685 5680 5676 5672 5669 5665 5663 5660 5658 5656 5655 5653 5652 5651 5650 5650 5650 5650 5651 5651 5652 5654 5655 5656 5657 5658 5658 5658 5658 5658 5659 5659 5660 5661 5661 5659 5659 5660
5697 5691 5686 5681 5676 5670 5665 5661 5656 5653 5650 5647 5646 5644 5643 5641 5639 5637 5636 5636 5635 5636 5637 5639 5640 5641 5642 5643 5644 5644 5644 5644 5643 5643 5642 5640 5640 5640 5641 5642 5642 5642 5641
5682 5676 5670 5665 5660 5654 5649 5644 5640 5637 5635 5632 5631 5630 5629 5628 5626 5625 5624 5623 5623 5623 5625 5627 5628 5629 5630 5631 5631 5631 5630 5629 5628 5626 5625 5624 5623 5622 5622 5622 5622 5622 5622
5666 5661 5655 5650 5644 5639 5633 5629 5626 5623 5621 5619 5617 5616 5615 5614 5613 5612 5611 5611 5611 5611 5613 5615 5616 5617 5618 5618 5619 5618 5617 5615 5613 5612 5611 5611 5610 5609 5609 5607 5605 5603 5601
5650 5644 5638 5633 5628 5624 5619 5615 5612 5610 5608 5606 5604 5603 5602 5601 5600 5599 5598 5597 5598 5599 5602 5604 5605 5606 5606 5606 5606 5605 5603 5601 5600 5599 5599 5599 5598 5597 5595 5593 5588 5583 5578
5631 5626 5621 5616 5612 5608 5604 5600 5598 5596 5594 5593 5591 5590 5589 5588 5587 5586 5585 5584 5584 5587 5590 5592 5594 5594 5594 5594 5593 5591 5589 5588 5587 5587 5587 5587 5586 5584 5581 5577 5571 5564 5557
5612 5607 5603 5599 5595 5592 5588 5585 5583 5582 5581 5579 5578 5577 5576 5574 5573 5573 5572 5572 5573 5575 5578 5581 5583 5583 5583 5582 5581 5579 5577 5576 5576 5576 5576 5575 5574 5571 5567 5562 5555 5547 5540
5593 5587 5584 5581 5578 5576 5573 5571 5569 5568 5567 5566 5564 5563 5562 5561 5560 5560 5560 5560 5562 5564 5567 5569 5571 5572 5571 5570 5569 5567 5566 5564 5564 5564 5564 5563 5562 5559 5555 5549 5543 5535 5527
5575 5570 5566 5563 5562 5560 5559 5557 5555 5554 5552 5551 5550 5550 5549 5548 5548 5548 5548 5549 5550 5553 5555 5558 5559 5560 5560 5559 5557 5555 5554 5553 5553 5552 5552 5551 5550 5548 5543 5538 5532 5525 5518
5557 5553 5550 5547 5546 5545 5544 5543 5541 5540 5538 5537 5536 5536 5535 5535 5535 5535 5536 5537 5539 5541 5544 5546 5548 5548 5548 5547 5546 5544 5543 5542 5541 5541 5540 5540 5538 5536 5532 5527 5522 5516 5509
5540 5535 5531 5529 5528 5528 5529 5529 5528 5527 5526 5525 5524 5523 5523 5524 5524 5525 5526 5527 5528 5530 5532 5534 5535 5536 5536 5535 5534 5532 5532 5531 5530 5530 5529 5528 5527 5525 5521 5517 5513 5508 5502
5524 5519 5514 5511 5510 5511 5514 5516 5515 5514 5514 5513 5513 5513 5513 5514 5514 5515 5516 5517 5518 5519 5521 5522 5523 5524 5524 5523 5522 5520 5520 5519 5519 5518 5517 5517 5516 5513 5510 5507 5504 5500 5496
5510 5505 5500 5497 5497 5498 5500 5503 5503 5503 5503 5503 5503 5504 5504 5504 5504 5504 5505 5507 5508 5509 5509 5510 5510 5511 5511 5511 5510 5508 5507 5506 5506 5505 5504 5504 5503 5501 5499 5497 5495 5492 5488
5498 5494 5490 5487 5486 5486 5488 5490 5491 5491 5492 5493 5493 5494 5494 5494 5494 5494 5495 5496 5497 5498 5497 5497 5498 5498 5498 5498 5498 5495 5493 5492 5492 5491 5491 5491 5490 5489 5488 5487 5485 5482 5478
5487 5483 5480 5478 5478 5477 5476 5477 5479 5480 5481 5482 5484 5485 5485 5485 5484 5484 5484 5485 5486 5486 5486 5485 5485 5485 5485 5485 5484 5482 5479 5478 5478 5478 5478 5477 5477 5477 5477 5477 5475 5472 5468
5474 5472 5470 5469 5468 5468 5467 5468 5469 5470 5471 5473 5474 5475 5476 5476 5475 5475 5475 5475 5474 5474 5474 5473 5472 5472 5471 5471 5470 5469 5466 5464 5464 5463 5464 5464 5464 5464 5464 5464 5463 5462 5459
5459 5460 5459 5459 5459 5459 5459 5459 5459 5461 5462 5464 5465 5466 5466 5466 5465 5464 5463 5462 5462 5461 5460 5460 5459 5458 5457 5456 5454 5454 5452 5451 5449 5449 5449 5449 5450 5450 5449 5450 5450 5449 5448
5446 5448 5449 5449 5450 5450 5450 5451 5452 5453 5454 5456 5456 5457 5456 5456 5454 5453 5452 5450 5449 5448 5447 5446 5445 5444 5442 5440 5439 5438 5438 5437 5436 5435 5435 5434 5434 5434 5434 5434 5434 5434 5435
5434 5437 5440 5441 5442 5442 5442 5443 5444 5445 5446 5446 5447 5447 5446 5445 5444 5442 5440 5438 5436 5435 5433 5432 5430 5429 5427 5425 5424 5423 5422 5422 5422 5421 5420 5420 5419 5419 5419 5418 5418 5417 5418
5426 5430 5433 5435 5436 5435 5435 5435 5435 5436 5437 5437 5437 5437 5437 5436 5434 5432 5429 5427 5424 5421 5419 5416 5414 5413 5412 5410 5409 5408 5407 5407 5406 5406 5405 5405 5404 5403 5403 5402 5402 5401 5400
5423 5426 5429 5430 5430 5429 5428 5427 5426 5427 5428 5428 5428 5428 5427 5425 5423 5420 5417 5414 5410 5407 5404 5402 5400 5398 5396 5395 5394 5393 5392 5391 5390 5390 5389 5388 5388 5387 5386 5385 5384 5383 5381
5424 5425 5425 5424 5423 5421 5420 5418 5418 5418 5419 5419 5419 5418 5416 5414 5411 5408 5404 5401 5397 5393 5391 5389 5387 5384 5382 5380 5379 5377 5376 5375 5374 5373 5372 5371 5369 5368 5367 5366 5365 5363 5362
5424 5422 5420 5418 5416 5413 5411 5410 5410 5410 5411 5410 5409 5407 5405 5402 5399 5395 5392 5388 5384 5381 5378 5375 5373 5370 5368 5366 5364 5362 5360 5358 5356 5355 5353 5352 5350 5349 5348 5346 5344 5342 5340